Location: Mahannah Oil Field
(37.4664°N, 96.6003°W)
Time: 09:01:30
(UTC+00:00)

Transit 2A Rocket - Pass Details

Date: 24 January 2021
Orbit: 594 x 908 km, 66.7° (Epoch: 05 March)

Event Time Altitude Azimuth Distance (km) Brightness Sun altitude
Rises 04:43:22 0° 317° (NW) 2,863 - -59.0°
Reaches altitude 10° 04:46:01 10° 302° (WNW) 1,937 - -59.4°
Maximum altitude 04:49:21 22° 251° (WSW) 1,310 - -60.0°
Drops below altitude 10° 04:52:40 10° 200° (SSW) 1,927 - -60.6°
Sets 04:55:18 0° 185° (S) 2,843 - -61.0°
